| time (UTC) | temp F | wind direction | speed knots | gust knots | rain 1hr in | rain 24hr in | rain mn in | humidity % | barometer mb |
| 20260506163044 | 62 | 202 | 3.5 | 8.7 | 0.00 | 0.07 | 0.00 | 52 | 1011.1 |
| 20260506161544 | 61 | 219 | 5.2 | 11.3 | 0.00 | 0.07 | 0.00 | 51 | 1011.2 |
| 20260506160052 | 61 | 199 | 2.6 | 11.3 | 0.00 | 0.07 | 0.00 | 54 | 1011.1 |
| 20260506154544 | 61 | 209 | 8.7 | 14.8 | 0.00 | 0.07 | 0.00 | 50 | 1011.0 |
| 20260506153041 | 62 | 223 | 5.2 | 10.4 | 0.00 | 0.07 | 0.00 | 52 | 1011.1 |
| 20260506151544 | 62 | 188 | 3.5 | 8.7 | 0.00 | 0.07 | 0.00 | 48 | 1011.2 |
| 20260506150040 | 62 | 122 | 2.6 | 12.2 | 0.00 | 0.07 | 0.00 | 52 | 1011.3 |
| 20260506144544 | 62 | 190 | 5.2 | 12.2 | 0.00 | 0.07 | 0.00 | 50 | 1011.2 |
| 20260506143039 | 62 | 150 | 1.7 | 8.7 | 0.00 | 0.07 | 0.00 | 51 | 1011.4 |
| 20260506141538 | 62 | 203 | 2.6 | 10.4 | 0.00 | 0.07 | 0.00 | 50 | 1011.6 |
| 20260506140038 | 62 | 203 | 6.1 | 11.3 | 0.00 | 0.07 | 0.00 | 51 | 1011.7 |
| 20260506134536 | 61 | 198 | 2.6 | 9.6 | 0.00 | 0.07 | 0.00 | 51 | 1011.9 |
| 20260506133035 | 62 | 223 | 3.5 | 13.9 | 0.00 | 0.07 | 0.00 | 51 | 1012.0 |
| 20260506131546 | 62 | 225 | 6.1 | 12.2 | 0.00 | 0.07 | 0.00 | 52 | 1012.2 |
| 20260506130040 | 62 | 236 | 4.3 | 9.6 | 0.00 | 0.07 | 0.00 | 50 | 1012.3 |
| 20260506124533 | 60 | 206 | 4.3 | 10.4 | 0.00 | 0.07 | 0.00 | 53 | 1012.3 |
| 20260506123031 | 60 | 188 | 2.6 | 10.4 | 0.00 | 0.07 | 0.00 | 48 | 1012.3 |
| 20260506121528 | 61 | 214 | 6.1 | 12.2 | 0.00 | 0.07 | 0.00 | 54 | 1012.3 |
| 20260506120026 | 60 | 198 | 6.1 | 14.8 | 0.00 | 0.07 | 0.00 | 57 | 1012.3 |
| 20260506114525 | 60 | 214 | 4.3 | 7.8 | 0.00 | 0.07 | 0.00 | 58 | 1012.3 |
| 20260506113023 | 58 | 214 | 2.6 | 8.7 | 0.00 | 0.07 | 0.00 | 60 | 1012.4 |
| 20260506111520 | 58 | 227 | 4.3 | 8.7 | 0.00 | 0.07 | 0.00 | 62 | 1012.5 |
| 20260506110018 | 57 | 211 | 3.5 | 7.8 | 0.00 | 0.07 | 0.00 | 62 | 1012.7 |
| 20260506104516 | 57 | 183 | 5.2 | 8.7 | 0.00 | 0.07 | 0.00 | 63 | 1012.8 |
| 20260506103016 | 55 | 194 | 2.6 | 7.0 | 0.00 | 0.07 | 0.00 | 70 | 1012.9 |
| 20260506101512 | 55 | 215 | 4.3 | 8.7 | 0.00 | 0.07 | 0.00 | 70 | 1012.8 |
| 20260506100010 | 55 | 240 | 1.7 | 7.0 | 0.00 | 0.07 | 0.00 | 71 | 1013.0 |
| 20260506094506 | 54 | 189 | 4.3 | 8.7 | 0.00 | 0.07 | 0.00 | 69 | 1013.1 |
| 20260506093005 | 53 | 257 | 3.5 | 7.8 | 0.00 | 0.07 | 0.00 | 75 | 1013.0 |
| 20260506091600 | 51 | 271 | 2.6 | 7.8 | 0.00 | 0.07 | 0.00 | 78 | 1013.0 |
| 20260506090057 | 50 | 194 | 3.5 | 7.0 | 0.00 | 0.07 | 0.00 | 79 | 1012.9 |
| 20260506084557 | 50 | 237 | 0.9 | 5.2 | 0.00 | 0.07 | 0.00 | 81 | 1012.8 |
| 20260506083100 | 49 | 218 | 4.3 | 6.1 | 0.00 | 0.07 | 0.00 | 82 | 1012.9 |
| 20260506081557 | 48 | 216 | 3.5 | 7.0 | 0.00 | 0.07 | 0.00 | 84 | 1012.8 |
| 20260506073049 | 46 | 196 | 0.9 | 6.1 | 0.00 | 0.07 | 0.00 | 88 | 1012.8 |
| 20260506071548 | 46 | 237 | 0.9 | 4.3 | 0.00 | 0.07 | 0.00 | 88 | 1012.7 |
| 20260506070145 | 45 | 241 | 1.7 | 4.3 | 0.00 | 0.07 | 0.00 | 88 | 1012.5 |
| 20260506061539 | 44 | 178 | 0.9 | 3.5 | 0.00 | 0.07 | 0.00 | 88 | 1012.4 |
| 20260506044527 | 43 | 240 | 4.3 | 8.7 | 0.00 | 0.07 | 0.00 | 87 | 1011.3 |
| 20260506043027 | 43 | 194 | 3.5 | 7.0 | 0.00 | 0.07 | 0.00 | 86 | 1011.3 |
| 20260506041526 | 44 | 193 | 4.3 | 11.3 | 0.00 | 0.07 | 0.00 | 86 | 1011.0 |
| 20260506040025 | 44 | 236 | 6.1 | 9.6 | 0.00 | 0.07 | 0.00 | 86 | 1011.0 |
| 20260506034524 | 44 | 212 | 5.2 | 12.2 | 0.00 | 0.07 | 0.00 | 86 | 1011.0 |
| 20260506033019 | 44 | 214 | 4.3 | 9.6 | 0.00 | 0.07 | 0.00 | 85 | 1011.0 |
| 20260506031516 | 44 | 249 | 3.5 | 7.8 | 0.00 | 0.07 | 0.00 | 85 | 1011.1 |
| 20260506030025 | 44 | 219 | 3.5 | 7.8 | 0.00 | 0.07 | 0.00 | 84 | 1011.2 |
| 20260506024525 | 45 | 196 | 3.5 | 9.6 | 0.00 | 0.07 | 0.00 | 84 | 1011.1 |
| 20260506023110 | 45 | 211 | 4.3 | 7.8 | 0.00 | 0.07 | 0.00 | 83 | 1011.2 |
| 20260506021507 | 45 | 244 | 3.5 | 7.0 | 0.00 | 0.07 | 0.00 | 83 | 1011.2 |
| 20260506020005 | 46 | 216 | 4.3 | 7.8 | 0.00 | 0.08 | 0.00 | 83 | 1011.2 |
| 20260506014501 | 46 | 241 | 2.6 | 5.2 | 0.00 | 0.08 | 0.00 | 82 | 1011.3 |
| 20260506013100 | 47 | 206 | 1.7 | 6.1 | 0.00 | 0.08 | 0.00 | 81 | 1011.2 |
| 20260506011557 | 47 | 198 | 2.6 | 7.8 | 0.00 | 0.08 | 0.00 | 81 | 1011.3 |
| 20260506010054 | 47 | 211 | 2.6 | 7.0 | 0.00 | 0.08 | 0.00 | 81 | 1011.4 |
| 20260506004551 | 48 | 226 | 3.5 | 8.7 | 0.00 | 0.08 | 0.00 | 81 | 1011.4 |
| 20260506003046 | 48 | 204 | 1.7 | 6.1 | 0.00 | 0.08 | 0.00 | 82 | 1011.5 |
| 20260506001546 | 49 | 209 | 1.7 | 4.3 | 0.00 | 0.08 | 0.00 | 81 | 1011.7 |
| 20260506000043 | 49 | 214 | 0.0 | 3.5 | 0.00 | 0.08 | 0.00 | 81 | 1011.7 |
| 20260505234547 | 49 | 231 | 1.7 | 4.3 | 0.00 | 0.08 | 0.00 | 81 | 1011.7 |
| 20260505233040 | 49 | 195 | 0.9 | 3.5 | 0.00 | 0.08 | 0.00 | 81 | 1011.8 |
| 20260505231550 | 50 | 236 | 2.6 | 6.1 | 0.00 | 0.08 | 0.00 | 81 | 1011.8 |
| 20260505230051 | 49 | 61 | 0.0 | 0.0 | 0.00 | 0.08 | 0.00 | 81 | 1011.8 |
| 20260505224536 | 49 | 61 | 0.9 | 3.5 | 0.00 | 0.08 | 0.00 | 80 | 1011.7 |
| 20260505223033 | 50 | 196 | 0.0 | 0.9 | 0.00 | 0.08 | 0.00 | 79 | 1012.0 |
| 20260505221531 | 50 | 196 | 1.7 | 3.5 | 0.00 | 0.08 | 0.00 | 79 | 1012.1 |
| 20260505220128 | 51 | 295 | 0.9 | 2.6 | 0.00 | 0.08 | 0.00 | 80 | 1012.2 |
| 20260505214528 | 51 | 295 | 0.9 | 1.7 | 0.00 | 0.08 | 0.08 | 80 | 1012.3 |
| 20260505213027 | 50 | 295 | 0.0 | 1.7 | 0.01 | 0.08 | 0.08 | 80 | 1012.2 |
| 20260505211527 | 51 | 295 | 0.0 | 2.6 | 0.04 | 0.08 | 0.08 | 79 | 1012.3 |
| 20260505210027 | 50 | 284 | 0.9 | 3.5 | 0.06 | 0.08 | 0.08 | 79 | 1012.2 |
| 20260505204524 | 49 | 275 | 0.9 | 3.5 | 0.06 | 0.08 | 0.08 | 81 | 1012.0 |
| 20260505203025 | 50 | 200 | 0.0 | 4.3 | 0.06 | 0.07 | 0.07 | 81 | 1011.7 |
| 20260505201523 | 51 | 227 | 1.7 | 3.5 | 0.02 | 0.03 | 0.03 | 80 | 1011.9 |
| 20260505200027 | 50 | 97 | 0.0 | 0.9 | 0.00 | 0.02 | 0.02 | 80 | 1011.2 |
| 20260505194523 | 50 | 97 | 0.0 | 1.7 | 0.00 | 0.39 | 0.02 | 80 | 1011.1 |
| 20260505193021 | 50 | 97 | 0.9 | 2.6 | 0.00 | 0.39 | 0.02 | 80 | 1010.8 |
| 20260505191522 | 50 | 138 | 0.9 | 2.6 | 0.00 | 0.39 | 0.02 | 80 | 1010.8 |
| 20260505190021 | 51 | 173 | 0.0 | 3.5 | 0.00 | 0.39 | 0.02 | 80 | 1010.7 |
| 20260505184519 | 51 | 194 | 0.9 | 3.5 | 0.00 | 0.43 | 0.02 | 80 | 1010.6 |
| 20260505183022 | 51 | 189 | 1.7 | 6.1 | 0.01 | 0.43 | 0.02 | 79 | 1010.7 |
| 20260505181518 | 52 | 182 | 1.7 | 3.5 | 0.01 | 0.43 | 0.02 | 79 | 1010.7 |
| 20260505180038 | 53 | 188 | 1.7 | 6.1 | 0.01 | 0.43 | 0.02 | 78 | 1010.6 |
| 20260505174516 | 54 | 188 | 0.9 | 4.3 | 0.01 | 0.43 | 0.02 | 77 | 1010.3 |
| 20260505173016 | 55 | 171 | 1.7 | 4.3 | 0.00 | 0.42 | 0.01 | 75 | 1010.4 |
| 20260505171515 | 56 | 200 | 0.0 | 1.7 | 0.00 | 0.42 | 0.01 | 70 | 1010.3 |
| 20260505170016 | 56 | 132 | 2.6 | 5.2 | 0.00 | 0.42 | 0.01 | 70 | 1010.4 |
| 20260505164514 | 56 | 277 | 3.5 | 8.7 | 0.00 | 0.42 | 0.01 | 73 | 1010.3 |